Regional Weather Roundup
Issued by NWS Glasgow, MT

Current Version | Previous Version | Text Only | Print | Product List | Glossary On
Versions: 1 2 3 4 5 6 7 8 9 10 11 12 13 14 15 16 17 18 19 20 21 22 23 24 25 26 27 28 29 30 31 32 33 34 35 36 37 38 39 40 41 42 43 44 45 46 47 48 49 50
000
ASUS45 KGGW 020815
RWRGGW
HOURLY REGIONAL WEATHER ROUNDUP FOR NORTHEAST MONTANA
NATIONAL WEATHER SERVICE GLASGOW MONTANA
200 AM MDT THU JUL 02 2015

NOTE: "FAIR" INDICATES FEW OR NO CLOUDS BELOW 12,000 FEET WITH NO
SIGNIFICANT WEATHER AND/OR OBSTRUCTIONS TO VISISBILITY.

NORTHEAST MONTANA


CITY           SKY/WX    TMP DP  RH WIND       PRES   REMARKS
GLASGOW        PTCLDY    60  51  72 W6        30.04F
PLENTYWOOD       N/A     56  53  90 W6          N/A
WOLF POINT     CLEAR     57  55  93 W5        30.03F
JORDAN           N/A     60  53  77 W5        30.09S
WINNETT          N/A     61  52  72 NE2         N/A
SIDNEY         PTCLDY    59  55  88 CALM      30.02S
GLENDIVE       PTCLDY    57  54  88 NW7       30.04F
MALTA            N/A     59  57  93 SW3         N/A
SCOBEY           N/A     54  49  83 CALM      30.02R

FORT PECK REPORTS


CITY           SKY/WX    TMP DP  RH WIND       PRES   REMARKS
FORT PECK        N/A     61  51  70 W5          N/A
THE PINES        N/A     63  51  65 W5          N/A

SOUTHEAST MONTANA


CITY           SKY/WX    TMP DP  RH WIND       PRES   REMARKS
BILLINGS       PTCLDY    65  54  67 NW8       30.15S
MILES CITY     CLEAR     62  56  80 W9        30.06R
BAKER          CLEAR     59  56  89 CALM      30.05S
LIVINGSTON     CLEAR     65  53  65 E12       30.19R

CENTRAL MONTANA


CITY           SKY/WX    TMP DP  RH WIND       PRES   REMARKS
HAVRE          PTCLDY    58  54  86 SW5       30.12S
LEWISTOWN      MOCLDY    64  52  64 W8        30.19F
GREAT FALLS    MOCLDY    66  51  58 NE7       30.18F
CUT BANK       PTCLDY    57  51  80 CALM      30.21S
HELENA         CLEAR     68  52  56 W7        30.17R
BUTTE          CLEAR     57  47  69 SE7       30.25R
BOZEMAN        CLEAR     60  52  74 N3        30.17R

WESTERN MONTANA


CITY           SKY/WX    TMP DP  RH WIND       PRES   REMARKS
MISSOULA       CLEAR     75  51  43 E8        30.08R
KALISPELL      NOT AVBL

NORTH DAKOTA


CITY           SKY/WX    TMP DP  RH WIND       PRES   REMARKS
WILLISTON      MOCLDY    62  56  80 SW7       30.00S
DICKINSON      CLOUDY    63  60  90 NW7       29.99S FOG
MINOT          MOCLDY    63  61  93 CALM      29.94F FOG
BISMARCK       CLOUDY    67  64  90 S5        29.94F

SOUTHERN SASKATCHEWAN


CITY           SKY/WX    TMP DP  RH WIND       PRES   REMARKS
REGINA         PTCLDY    59  59 100 NW3       29.99R
ESTEVAN        CLOUDY    59  59 100 NE5       29.97S SMOKE
SWIFT CURRENT  CLOUDY    61 N/A N/A W9        30.05S



USA.gov is the U.S. government's official web portal to all federal, state and local government web resources and services.